Location: Ebersheim
(48.3033°N, 7.4991°E)
Time: 10:22:03
(UTC+00:00)

Lacrosse 5 - Pass Details

Date: 27 February 2020
Orbit: 715 x 724 km, 57.0° (Epoch: 21 March)

Event Time Altitude Azimuth Distance (km) Brightness Sun altitude
Rises 20:29:10 0° 259° (W) 3,114 5.8 -33.0°
Reaches altitude 10° 20:31:39 10° 266° (W) 2,197 5.0 -33.4°
Enters shadow 20:34:52 33° 294° (WNW) 1,193 3.4 -33.8°
